[[{"header":{"parameterUnit":"m.s-1","parameterCategory":1,"la1":30.2992,"la2":30.254,"lo1":-89.0895,"lo2":-89.0443,"dy":0.0025,"dx":0.0025,"nx":19,"ny":19,"refTime":"2026-05-02T21:00:00:Z","depth":0,"parameterNumber":2,"parameterNumberName":"U-component_of_WINDS"},"data":[0,0,0,1.2726,1.2728,1.2827,1.2827,1.2945,1.2946,0,0,0,0,0,0,0,0,0,0,0,1.2689,1.2689,1.2726,1.2728,1.2827,1.2827,1.2945,1.2946,0,0,0,0,0,0,0,0,0,0,0,1.2689,1.2689,1.269,1.2728,1.2827,1.2828,1.2944,1.2873,0,0,0,0,0,0,0,0,0,0,1.2779,1.2737,1.2689,1.269,1.2729,1.2827,1.2828,1.287,1.2878,1.2895,0,1.2907,0,1.2928,1.2953,1.2953,0,0,0,1.2734,1.2731,1.2764,1.269,1.273,1.2827,1.2784,1.2875,1.2883,1.2905,1.2909,1.2914,1.293,1.2954,1.2954,1.3031,1.3031,0,0,1.2728,1.2703,1.2758,1.2769,1.2751,1.2781,1.2787,1.288,1.2883,1.291,1.2917,1.2932,1.2954,1.2955,1.3031,1.3031,0,0,0,1.2709,1.2699,1.273,1.2764,1.2782,1.2783,1.2791,1.2879,1.2891,1.2918,1.2933,1.2955,1.2956,1.3031,1.3031,1.301,0,0,0,1.2706,1.2687,1.2728,1.2713,1.278,1.2832,1.2787,1.2885,1.2896,1.2933,1.2955,1.2957,1.3031,1.3031,1.301,1.3004,0,0,0,1.2685,1.2685,1.2697,1.2712,1.2753,1.2831,1.2848,1.2888,1.2905,1.2953,1.2958,1.3031,1.3031,1.3011,1.3005,1.3017,0,0,0,1.2656,1.2677,1.2696,1.2726,1.2752,1.2816,1.2848,1.2898,1.2936,1.2955,1.3031,1.3031,1.3011,1.3005,1.3017,1.3022,1.3022,0,0,1.2668,1.2678,1.2697,1.2717,1.2771,1.2803,1.2855,1.2915,1.2944,1.3001,1.3003,1.301,1.3005,1.3017,1.3029,1.3029,0,0,0,1.2692,1.2706,1.2726,1.2761,1.2807,1.2846,1.2901,1.2923,1.2973,1.2967,1.3019,1.3017,1.3025,1.3028,1.3028,1.3036,1.3032,1.3032,1.3032,1.2673,1.2708,1.2743,1.2789,1.2823,1.2879,1.2911,1.2951,1.2977,1.2988,1.3005,1.3008,1.3011,1.3011,1.302,1.3011,1.3011,1.3011,1.3011,1.2694,1.2719,1.2752,1.2798,1.2835,1.2874,1.293,1.2947,1.299,1.2998,1.3007,1.3013,1.3009,1.3019,1.301,1.301,1.301,1.301,1.301,1.2685,1.2703,1.2729,1.2784,1.2823,1.287,1.2909,1.2942,1.2974,1.2983,1.3004,1.3005,1.3009,1.2991,1.2991,1.2991,1.2991,1.2991,1.2991,1.2665,1.2695,1.2724,1.2774,1.2801,1.2842,1.2899,1.2927,1.2967,1.2988,1.2989,1.3013,1.3003,1.2999,1.2991,1.2991,1.2991,1.2991,1.2991,1.2672,1.2676,1.2719,1.2746,1.2809,1.2846,1.2887,1.2942,1.2971,1.2989,1.3012,1.2999,1.3011,1.3012,1.3009,1.3004,1.3004,1.3004,1.3004,1.2664,1.2674,1.2726,1.2767,1.2811,1.2853,1.2903,1.2949,1.2997,1.3017,1.3022,1.3022,1.3021,1.3034,1.3034,1.3032,1.3033,1.3033,1.3033,1.2671,1.2686,1.2721,1.2767,1.2818,1.2862,1.291,1.2958,1.3013,1.3035,1.3033,1.3032,1.3031,1.3029,1.305,1.3049,1.3046,0,0]},{"header":{"parameterUnit":"m.s-1","parameterCategory":1,"la1":30.2992,"la2":30.254,"lo1":-89.0895,"lo2":-89.0443,"dy":0.0025,"dx":0.0025,"nx":19,"ny":19,"refTime":"2026-05-02T21:00:00:Z","depth":0,"parameterNumber":3,"parameterNumberName":"V-component_of_WINDS"},"data":[0,0,0,0.2958,0.2957,0.2875,0.2874,0.2797,0.2796,0,0,0,0,0,0,0,0,0,0,0,0.3001,0.3001,0.2958,0.2957,0.2875,0.2874,0.2797,0.2796,0,0,0,0,0,0,0,0,0,0,0,0.3001,0.3001,0.3001,0.2957,0.2875,0.2874,0.2797,0.2849,0,0,0,0,0,0,0,0,0,0,0.2923,0.2981,0.3001,0.3001,0.2956,0.2875,0.2874,0.2851,0.2845,0.2846,0,0.2853,0,0.2824,0.2793,0.2793,0,0,0,0.2943,0.2986,0.2947,0.3001,0.2956,0.2875,0.2908,0.2847,0.2841,0.2839,0.2852,0.2848,0.2822,0.2793,0.2792,0.2844,0.2845,0,0,0.2947,0.2996,0.2952,0.2944,0.2961,0.2911,0.2906,0.2843,0.286,0.2851,0.2846,0.2821,0.2792,0.2792,0.2843,0.2844,0,0,0,0.297,0.3,0.2962,0.2948,0.2932,0.2909,0.2903,0.2862,0.2846,0.2845,0.282,0.2792,0.2791,0.2842,0.2844,0.2934,0,0,0,0.2972,0.3013,0.2964,0.2994,0.2933,0.2896,0.2924,0.285,0.2842,0.2821,0.2792,0.2791,0.2841,0.2843,0.2929,0.2969,0,0,0,0.3,0.3016,0.301,0.2996,0.2963,0.2896,0.2876,0.2847,0.2828,0.2793,0.2791,0.2841,0.2843,0.2925,0.2961,0.2994,0,0,0,0.3044,0.3093,0.3013,0.3058,0.2964,0.2954,0.2876,0.2866,0.2847,0.2792,0.2841,0.2844,0.2924,0.2957,0.299,0.3029,0.3051,0,0,0.3133,0.3106,0.3129,0.3054,0.3071,0.2962,0.2991,0.2928,0.288,0.2858,0.2859,0.2931,0.2961,0.2993,0.3158,0.3176,0,0,0,0.3173,0.319,0.3184,0.3168,0.3121,0.3082,0.301,0.2985,0.2964,0.288,0.2951,0.2968,0.2985,0.3001,0.3016,0.3026,0.2854,0.2854,0.2853,0.3369,0.3305,0.3337,0.3262,0.3247,0.317,0.3152,0.3105,0.3046,0.3064,0.3056,0.3164,0.3186,0.3196,0.3208,0.3074,0.3074,0.3074,0.3074,0.3492,0.3504,0.3422,0.3423,0.3354,0.3354,0.328,0.3238,0.3225,0.3165,0.3177,0.3115,0.3218,0.3224,0.3081,0.3079,0.3079,0.3078,0.3078,0.3612,0.3606,0.3576,0.3544,0.3527,0.3449,0.344,0.3378,0.3319,0.3331,0.3314,0.3312,0.33,0.3327,0.3328,0.3328,0.3328,0.3329,0.3329,0.3747,0.371,0.3711,0.3663,0.3643,0.3609,0.353,0.3508,0.3467,0.3422,0.3421,0.3358,0.3241,0.3211,0.3334,0.3333,0.3333,0.3332,0.3332,0.3892,0.3848,0.3851,0.3831,0.3768,0.3753,0.3673,0.3633,0.3605,0.3602,0.3535,0.346,0.3427,0.3415,0.339,0.3551,0.3551,0.3551,0.3551,0.3991,0.3968,0.3955,0.3926,0.3891,0.3818,0.3819,0.3758,0.3687,0.3665,0.3633,0.3595,0.3585,0.3558,0.3542,0.3517,0.3708,0.3708,0.3708,0.4075,0.4046,0.406,0.3991,0.3936,0.389,0.3888,0.3856,0.3767,0.3713,0.3646,0.3639,0.3577,0.3561,0.3505,0.3483,0.3437,0,0]}]]